This is the latest recevied weather packets stored in our database for station/object K8MUD. If no packets are shown the sender has not sent any weather packets the latest 10 day(s).
| Time | Temp. | Humidity | Pressure | Rain* | Wind** | Luminosity | Snow |
|---|---|---|---|---|---|---|---|
| 1777917889 | 24.44° C | 45% | 1001.3 hPa | 0 mm | - | - | - |
| 1777917589 | 24.44° C | 46% | 1001.4 hPa | 0 mm | - | - | - |
| 1777917289 | 24.44° C | 45% | 1001.5 hPa | 0 mm | - | - | - |
| 1777916989 | 23.89° C | 44% | 1001.6 hPa | 0 mm | - | - | - |
| 1777916689 | 23.89° C | 47% | 1001.6 hPa | 0 mm | - | - | - |
| 1777916389 | 23.89° C | 45% | 1001.8 hPa | 0 mm | - | - | - |
| 1777916089 | 24.44° C | 41% | 1001.8 hPa | 0 mm | - | - | - |
| 1777915789 | 23.89° C | 44% | 1001.9 hPa | 0 mm | - | - | - |
| 1777915489 | 23.89° C | 44% | 1002 hPa | 0 mm | - | - | - |
| 1777915189 | 23.89° C | 46% | 1002.1 hPa | 0 mm | - | - | - |
| 1777914889 | 23.33° C | 45% | 1002.1 hPa | 0 mm | - | - | - |
| 1777914589 | 23.33° C | 45% | 1002.3 hPa | 0 mm | - | - | - |
| 1777914288 | 23.33° C | 46% | 1002.2 hPa | 0 mm | - | - | - |
| 1777913988 | 23.33° C | 46% | 1002.4 hPa | 0 mm | - | - | - |
| 1777913688 | 23.33° C | 46% | 1002.3 hPa | 0 mm | - | - | - |
| 1777913388 | 22.78° C | 47% | 1002.5 hPa | 0 mm | - | - | - |
| 1777913088 | 22.78° C | 48% | 1002.6 hPa | 0 mm | - | - | - |
| 1777912788 | 22.78° C | 47% | 1002.7 hPa | 0 mm | - | - | - |
| 1777912488 | 22.78° C | 49% | 1002.7 hPa | 0 mm | - | - | - |
| 1777912188 | 22.22° C | 48% | 1002.9 hPa | 0 mm | - | - | - |
| 1777911888 | 22.22° C | 48% | 1003 hPa | 0 mm | - | - | - |
| 1777911588 | 22.22° C | 49% | 1002.9 hPa | 0 mm | - | - | - |
| 1777911288 | 21.67° C | 48% | 1003.1 hPa | 0 mm | - | - | - |
| 1777910988 | 21.67° C | 48% | 1003.3 hPa | 0 mm | - | - | - |
| 1777910688 | 21.67° C | 48% | 1003.2 hPa | 0 mm | - | - | - |
* Rain latest hour (hover to see other rain measurements)
** Current wind speed in m/s (hover to see current wind gust speed)